Regional Weather Roundup
Issued by NWS

Home | Current Version | Previous Version | Graphics & Text | Print | Product List | Glossary On
Versions: 1 2 3 4 5 6 7 8 9 10 11 12 13 14 15 16 17 18 19 20 21 22 23 24 25 26 27 28 29 30 31 32 33 34 35 36 37 38 39 40 41 42 43 44 45 46 47 48 49 50
000
ASUS43 KTOP 280459
RWRKS

WEATHER ROUNDUP FOR KANSAS
NATIONAL WEATHER SERVICE GOODLAND KS
1200 AM CDT SAT MAY 28 2016

NOTE:  "FAIR" INDICATES FEW OR NO CLOUDS BELOW 12,000 FEET WITH NO
SIGNIFICANT WEATHER AND/OR OBSTRUCTIONS TO VISIBILITY.

KSZ001>006-013>018-027>032-041>047-280600-
NORTHWEST KANSAS

CITY           SKY/WX    TMP DP  RH WIND       PRES   REMARKS
GOODLAND       CLEAR     49  47  93 W9        29.85R
HAYS           CLOUDY    55  48  76 NE8       29.74S
HILL CITY      CLOUDY    58  54  86 N13       29.75R
RUSSELL        LGT RAIN  57  55  93 NE8       29.75R
$$

KSZ061>065-074>080-084>089-280600-
SOUTHWEST KANSAS

CITY           SKY/WX    TMP DP  RH WIND       PRES   REMARKS
DODGE CITY     PTCLDY    56  51  84 W14       29.77R
ELKHART          N/A     54  44  69 W12         N/A
GARDEN CITY    MOCLDY    54  48  80 NW8       29.81R
GREAT BEND     CLOUDY    57  48  72 NE10      29.74S
LIBERAL        CLEAR     55  45  67 NW18G24   29.84R
$$

KSZ066>073-081>083-090>101-280600-
SOUTHEAST KANSAS

CITY           SKY/WX    TMP DP  RH WIND       PRES   REMARKS
CHANUTE        CLOUDY    61  58  90 E9        29.73F
COFFEYVILLE    PTCLDY    61  59  93 SE7       29.77F
HUTCHINSON     CLOUDY    60  57  89 N5        29.71R
MEDICINE LODGE   N/A     65  50  58 SW8       29.70R
NEWTON         CLOUDY    59  54  82 W7        29.74R
PARSONS        CLOUDY    60  59  96 VRB5      29.78F
WICHITA INTL   CLOUDY    63  59  87 S12       29.70S
WICHITA JABRA  MOCLDY    61  59  93 S12       29.70S
WINFIELD       PTCLDY    62  58  86 SE8       29.74S
$$

KSZ007>012-019>026-033>040-048>060-102>105-280600-
NORTHEAST KANSAS

CITY           SKY/WX    TMP DP  RH WIND       PRES   REMARKS
CONCORDIA      LGT RAIN  61  55  81 NE3       29.77R
EMPORIA        CLOUDY    61  57  87 S16       29.71R
LAWRENCE       CLOUDY    60  58  92 E6        29.71F
MANHATTAN      CLOUDY    60  57  89 CALM      29.72R
OLATHE IND     CLOUDY    59  58  96 E7        29.74F
OLATHE EXE     CLOUDY    59  57  93 NE9       29.75F
SALINA         CLOUDY    62  56  80 NW5       29.76R
TOPEKA BILLARD CLOUDY    61  58  90 E9        29.71F
TOPEKA FORBES  CLOUDY    61  58  90 E7        29.71F
$$




USA.gov is the U.S. government's official web portal to all federal, state and local government web resources and services.